Sexton Summit, OR

5:12 AM PST on January 22, 2018 (GMT -0800)
Sexton Summit

Weather History for KSXT - May, 2013

Change the Weather History Date:

Thursday, May 23, 2013

  Actual Average Record
Temperature  
Mean Temperature 38 °F -  
Max Temperature 51 °F 60 °F 82 °F (1999)
Min Temperature 30 °F 40 °F 30 °F (2013)
Degree Days  
Heating Degree Days 27    
Moisture  
Dew Point 31 °F    
Average Humidity 84    
Maximum Humidity 100    
Minimum Humidity 59    
Precipitation  
Precipitation 0.00 in - - ()
Sea Level Pressure  
Sea Level Pressure 30.01 in    
Wind  
Wind Speed 2 mph (NW)    
Max Wind Speed 10 mph    
Max Gust Speed 17 mph    
Visibility 6 miles    
Events Fog , Rain    
Averages and records for this station are not official NWS values.
T = Trace of Precipitation, MM = Missing Value Source: NWS Daily Summary

Daily Weather History Graph

Daily Weather History Graph

Search for Another Location

Airport or City:

Trip Planner

Search our weather history database for the weather conditions in past years. The results will help you decide how hot, cold, wet, or windy it might be!

Date:

Astronomy

May. 23, 2013 Rise Set
Actual Time 5:43 AM PDT 8:37 PM PDT
Civil Twilight 5:10 AM PDT 9:10 PM PDT
Nautical Twilight 4:28 AM PDT 9:52 PM PDT
Astronomical Twilight 3:39 AM PDT 10:42 PM PDT
Moon 7:14 PM PDT (5/23) 4:35 AM PDT (5/23)
Length of Visible Light 16h 00m
Length of Day
14h 53m
Waxing Gibbous, 97% of the Moon is Illuminated
May 23
Waxing Gibbous
May 24
Full
May 31
Last Quarter
Jun 8
New
Jun 16
First Quarter

Hourly Weather History & Observations

Time (PDT) Temp. Windchill Dew Point Humidity Pressure Visibility Wind Dir Wind Speed Gust Speed Precip Events Conditions
12:03 AM 33.8 °F 29.6 °F 32.0 °F 93% 29.99 in 0.5 mi NNW 4.6 mph - N/A Fog Fog
12:19 AM 33.8 °F 29.6 °F 30.2 °F 87% 29.98 in 0.5 mi NNW 4.6 mph - N/A Fog Fog
12:34 AM 32.0 °F 27.5 °F 30.2 °F 93% 29.98 in 0.8 mi NNW 4.6 mph - N/A   Overcast
12:42 AM 32.0 °F 26.4 °F 30.2 °F 93% 29.98 in 0.8 mi NNW 5.8 mph - N/A   Overcast
12:56 AM 32.0 °F - 30.9 °F 96% 30.03 in 0.5 mi Calm Calm - N/A Fog Fog
1:15 AM 32.0 °F 28.7 °F 30.2 °F 93% 29.98 in 1.5 mi NNW 3.5 mph - N/A   Overcast
1:29 AM 32.0 °F 28.7 °F 30.2 °F 93% 29.97 in 2.0 mi NNW 3.5 mph - N/A   Overcast
1:33 AM 32.0 °F 28.7 °F 30.2 °F 93% 29.97 in 1.2 mi NNW 3.5 mph - N/A   Overcast
1:56 AM 32.0 °F - 30.9 °F 96% 30.02 in 1.2 mi Calm Calm - N/A   Overcast
2:06 AM 32.0 °F - 30.2 °F 93% 29.97 in 0.5 mi Calm Calm - N/A Fog Fog
2:13 AM 33.8 °F - 30.2 °F 87% 29.97 in 0.5 mi Calm Calm - N/A Fog Fog
2:39 AM 32.0 °F - 30.2 °F 93% 29.97 in 1.5 mi Calm Calm - N/A   Overcast
2:41 AM 32.0 °F - 30.2 °F 93% 29.98 in 3.0 mi Calm Calm - N/A   Overcast
2:48 AM 32.0 °F - 30.2 °F 93% 29.98 in 1.5 mi Calm Calm - N/A   Overcast
2:53 AM 32.0 °F 27.5 °F 30.2 °F 93% 29.98 in 1.0 mi NNW 4.6 mph - N/A   Overcast
2:56 AM 32.0 °F - 30.9 °F 96% 30.02 in 1.0 mi Calm Calm - N/A   Overcast
2:59 AM 33.8 °F 30.8 °F 30.2 °F 87% 29.98 in 0.8 mi Variable 3.5 mph - N/A   Overcast
3:22 AM 33.8 °F - 30.2 °F 87% 29.97 in 0.2 mi Calm Calm - N/A Fog Fog
3:31 AM 32.0 °F - 30.2 °F 93% 29.97 in 1.0 mi Calm Calm - N/A   Overcast
3:33 AM 32.0 °F - 30.2 °F 93% 29.97 in 2.5 mi Calm Calm - N/A   Overcast
3:38 AM 30.2 °F - 30.2 °F 100% 29.97 in 6.0 mi Calm Calm - N/A   Overcast
3:56 AM 30.0 °F - 28.9 °F 96% 30.02 in 9.0 mi Calm Calm - N/A   Overcast
4:19 AM 32.0 °F - 30.2 °F 93% 29.97 in 1.8 mi Calm Calm - N/A   Overcast
4:26 AM 32.0 °F - 30.2 °F 93% 29.97 in 0.8 mi Calm Calm - N/A   Overcast
4:47 AM 30.2 °F - 30.2 °F 100% 29.96 in 1.5 mi Calm Calm - N/A   Overcast
4:51 AM 30.2 °F 26.7 °F 28.4 °F 93% 29.96 in 3.0 mi ENE 3.5 mph - N/A   Overcast
4:56 AM 30.9 °F 27.5 °F 28.9 °F 92% 30.01 in 8.0 mi East 3.5 mph - N/A   Overcast
5:16 AM 30.2 °F - 28.4 °F 93% 29.97 in 1.0 mi Calm Calm - N/A   Mostly Cloudy
5:20 AM 30.2 °F - 30.2 °F 100% 29.97 in 0.2 mi Calm Calm - N/A Fog Light Freezing Fog
5:33 AM 30.2 °F - 30.2 °F 100% 29.97 in 1.0 mi Calm Calm - N/A   Overcast
5:35 AM 30.2 °F - 28.4 °F 93% 29.97 in 4.0 mi Calm Calm - N/A   Overcast
5:56 AM 30.9 °F - 28.0 °F 89% 30.02 in 10.0 mi Calm Calm - N/A   Mostly Cloudy
6:56 AM 32.0 °F - 30.0 °F 92% 30.05 in 9.0 mi Calm Calm - N/A   Overcast
7:43 AM 33.8 °F - 30.2 °F 87% 30.00 in 8.0 mi Calm Calm - N/A   Overcast
7:56 AM 33.1 °F - 30.0 °F 89% 30.06 in 10.0 mi Calm Calm - N/A   Overcast
8:56 AM 34.0 °F - 30.0 °F 85% 30.07 in 10.0 mi Calm Calm - N/A   Overcast
9:06 AM 33.8 °F - 30.2 °F 87% 30.01 in 8.0 mi Calm Calm - N/A   Overcast
9:56 AM 37.0 °F - 32.0 °F 82% 30.06 in 10.0 mi Calm Calm - N/A   Overcast
10:39 AM 37.4 °F 34.9 °F 32.0 °F 81% 30.02 in 10.0 mi Variable 3.5 mph - N/A   Overcast
10:56 AM 37.9 °F - 32.0 °F 79% 30.06 in 10.0 mi Calm Calm - N/A   Overcast
11:29 AM 44.6 °F 40.2 °F 33.8 °F 66% 30.01 in 10.0 mi South 8.1 mph - N/A   Scattered Clouds
11:51 AM 46.4 °F 44.3 °F 33.8 °F 62% 30.01 in 10.0 mi SSW 4.6 mph - 0.00 in   Mostly Cloudy
11:56 AM 44.1 °F 41.5 °F 32.0 °F 63% 30.04 in 10.0 mi Variable 4.6 mph - 0.00 in Rain Light Rain
12:56 PM 44.1 °F 42.5 °F 32.0 °F 63% 30.05 in 10.0 mi Variable 3.5 mph - 0.00 in   Mostly Cloudy
1:56 PM 44.1 °F - 30.9 °F 60% 30.06 in 10.0 mi Calm Calm - N/A   Overcast
2:56 PM 46.9 °F - 33.1 °F 59% 30.06 in 10.0 mi Calm Calm - N/A   Overcast
3:56 PM 46.9 °F - 34.0 °F 61% 30.06 in 10.0 mi NNW 5.8 mph - N/A   Overcast
4:56 PM 46.9 °F - 33.1 °F 59% 30.06 in 10.0 mi Calm Calm - N/A   Overcast
5:25 PM 46.4 °F - 35.6 °F 66% 30.03 in 10.0 mi Calm Calm - N/A   Overcast
5:48 PM 46.4 °F - 35.6 °F 66% 30.03 in 10.0 mi Calm Calm - N/A   Overcast
5:56 PM 45.0 °F 43.5 °F 36.0 °F 71% 30.06 in 10.0 mi NNW 3.5 mph - N/A   Overcast
6:56 PM 46.0 °F - 36.0 °F 68% 30.05 in 10.0 mi Calm Calm - N/A   Overcast
7:56 PM 43.0 °F 41.3 °F 33.1 °F 68% 30.06 in 10.0 mi Variable 3.5 mph - N/A   Overcast
8:56 PM 39.0 °F 35.7 °F 32.0 °F 76% 30.08 in 10.0 mi NNW 4.6 mph - N/A   Scattered Clouds
9:56 PM 37.9 °F 33.5 °F 30.9 °F 76% 30.08 in 10.0 mi Variable 5.8 mph - N/A   Overcast
10:56 PM 37.0 °F 31.6 °F 30.9 °F 79% 30.08 in 10.0 mi Variable 6.9 mph - N/A   Mostly Cloudy
11:42 PM 37.4 °F 30.3 °F 32.0 °F 81% 30.04 in 10.0 mi SSW 10.4 mph 17.3 mph N/A   Overcast
11:56 PM 37.0 °F 30.4 °F 32.0 °F 82% 30.05 in 10.0 mi SSW 9.2 mph 16.1 mph N/A   Overcast